Location: ??????????
(44.2167°N, 135.5333°E)
Time: 14:17:53
(UTC+00:00)

SL-4 R/B - Pass Details

Date: 15 June 2025
Orbit: 393 x 546 km, 51.6° (Epoch: 15 July)

Event Time Altitude Azimuth Distance (km) Brightness Sun altitude
Rises 15:37:57 0° 282° (WNW) 2,692 5.6 -21.8°
Reaches altitude 10° 15:40:27 10° 294° (WNW) 1,785 4.8 -21.8°
Maximum altitude 15:43:59 28° 354° (N) 1,001 4.0 -21.6°
Drops below altitude 10° 15:47:25 10° 55° (NE) 1,720 5.2 -21.5°
Sets 15:49:47 0° 67° (ENE) 2,576 5.9 -21.4°
